N4MRV-1 Weather Reports


time (UTC)temp
C
wind
direction
speed
KPH
gust
KPH
rain 1hr
cm
rain 24hr
cm
rain mn
cm
humidity
%
barometer
mb
20260831053015 23 0.0 0.0 0.00 0.00 0.00 88 1019.3
20260831051515 23 0.0 0.0 0.00 0.00 0.00 88 1019.4
20260831050015 23 0.0 0.0 0.00 0.00 0.00 87 1019.5
20260831044515 24 0.0 0.0 0.00 0.00 0.00 87 1019.6
20260831043015 24 0.0 0.0 0.00 0.00 0.00 86 1019.7
20260831041535 24 0.0 0.0 0.00 0.00 0.00 86 1019.7
20260831040015 24 0.0 0.0 0.00 0.00 0.00 86 1019.7
20260831034516 24 0.0 0.0 0.00 0.00 0.00 86 1019.7
20260831033016 24 0.0 0.0 0.00 0.00 0.00 86 1019.8
20260831031536 24 0.0 0.0 0.00 0.00 0.00 85 1019.8
20260831030016 25 0.0 0.0 0.00 0.00 0.00 85 1019.9
20260831024516 25 0.0 0.0 0.00 0.00 0.00 85 1019.8
20260831023016 25 0.0 0.0 0.00 0.00 0.00 85 1019.8
20260831021516 25 0.0 0.0 0.00 0.00 0.00 84 1019.8
20260831020056 25 0.0 0.0 0.00 0.00 0.00 84 1019.8
20260831014556 25 0.0 1.6 0.00 0.00 0.00 82 1019.9
20260831013016 25 0.0 0.0 0.00 0.00 0.00 82 1019.9
20260831011515 25 0.0 0.0 0.00 0.00 0.00 80 1020.0
20260831010016 26 0.0 1.6 0.00 0.00 0.00 80 1019.9
20260831004536 26 0.0 0.0 0.00 0.00 0.00 78 1019.7
20260831003016 26 0.0 0.0 0.00 0.00 0.00 77 1019.3
20260831001516 27 0.0 0.0 0.00 0.00 0.00 76 1019.1
20260831000015 27 0.0 0.0 0.00 0.00 0.00 75 1019.0
20260830234516 28 0.0 0.0 0.00 0.00 0.00 75 1019.2
20260830233015 28 0.0 0.0 0.00 0.00 0.00 74 1019.3
20260830231536 28 0.0 0.0 0.00 0.00 0.00 73 1019.3
20260830230015 28 0.0 0.0 0.00 0.00 0.00 71 1019.3
20260830224515 29 0.0 0.0 0.00 0.00 0.00 70 1019.1
20260830221515 29 0.0 1.6 0.00 0.00 0.00 68 1019.0
20260830220015 30 0.0 3.2 0.00 0.00 0.00 68 1019.1
20260830214515 30 0.0 4.8 0.00 0.00 0.00 68 1019.1
20260830213015 30 0.0 3.2 0.00 0.00 0.00 68 1019.0
20260830211515 30 0.0 4.8 0.00 0.00 0.00 65 1018.9
20260830210035 30 315 1.6 4.8 0.00 0.00 0.00 66 1019.0
20260830204515 30 338 1.6 4.8 0.00 0.00 0.00 66 1018.9
20260830203015 30 180 1.6 6.4 0.00 0.00 0.00 65 1019.2
20260830201517 30 180 1.6 4.8 0.00 0.00 0.00 65 1019.3
20260830200017 30 315 1.6 8.0 0.00 0.00 0.00 65 1019.5
20260830194517 30 315 1.6 4.8 0.00 0.00 0.00 66 1019.8
20260830193017 30 315 1.6 4.8 0.00 0.00 0.00 65 1020.1
20260830191537 30 113 1.6 3.2 0.00 0.00 0.00 68 1020.4
20260830190017 29 0 1.6 4.8 0.00 0.00 0.00 68 1020.6
20260830184517 29 203 1.6 11.3 0.00 0.00 0.00 67 1020.7
20260830183037 29 248 1.6 4.8 0.00 0.00 0.00 68 1021.0
20260830181517 29 135 1.6 8.0 0.00 0.00 0.00 70 1021.3
20260830180017 28 0 1.6 6.4 0.00 0.00 0.00 71 1021.6
20260830174537 28 338 1.6 3.2 0.00 0.00 0.00 72 1021.7
20260830173017 28 338 1.6 6.4 0.00 0.00 0.00 69 1021.7
20260830171517 28 68 1.6 6.4 0.00 0.00 0.00 71 1022.1
20260830170017 28 68 1.6 6.4 0.00 0.00 0.00 72 1022.1
20260830164557 28 293 1.6 6.4 0.00 0.00 0.00 72 1022.3
20260830163016 28 293 1.6 4.8 0.00 0.00 0.00 73 1022.4
20260830161517 28 0 1.6 4.8 0.00 0.00 0.00 75 1022.5
20260830160017 27 225 1.6 11.3 0.00 0.00 0.00 75 1022.7
20260830154517 27 0.0 4.8 0.00 0.00 0.00 78 1022.9
20260830153017 26 0.0 3.2 0.00 0.00 0.00 80 1022.9
20260830151516 26 315 1.6 8.0 0.00 0.00 0.00 81 1023.0
20260830150016 25 315 1.6 6.4 0.00 0.00 0.00 82 1022.9
20260830144536 24 113 1.6 4.8 0.00 0.00 0.00 88 1022.9
20260830143016 23 0.0 3.2 0.00 0.00 0.00 93 1022.9
20260830141517 23 0.0 3.2 0.00 0.00 0.00 95 1023.0
20260830140016 23 0.0 3.2 0.00 0.00 0.00 96 1023.0
20260830134516 23 248 1.6 4.8 0.00 0.00 0.00 96 1023.3
20260830133016 22 0.0 0.0 0.00 0.00 0.00 96 1023.7
20260830131516 22 0.0 0.0 0.00 0.00 0.00 96 1023.8
20260830130016 22 0.0 0.0 0.00 0.00 0.00 96 1023.9
20260830124536 22 0.0 0.0 0.00 0.00 0.00 96 1024.0
20260830123016 21 0.0 0.0 0.00 0.00 0.00 96 1023.9
20260830121516 21 0.0 0.0 0.00 0.00 0.00 95 1023.8
20260830120016 21 0.0 0.0 0.00 0.00 0.00 96 1023.9
20260830114536 21 0.0 0.0 0.00 0.00 0.00 95 1023.8
20260830113016 21 0.0 0.0 0.00 0.00 0.00 95 1023.7
20260830111516 21 0.0 0.0 0.00 0.00 0.00 95 1023.6
20260830110036 20 0.0 0.0 0.00 0.00 0.00 95 1023.6
20260830104516 20 0.0 0.0 0.00 0.00 0.00 95 1023.5
20260830103016 20 0.0 0.0 0.00 0.00 0.00 95 1023.4
20260830101516 20 0.0 0.0 0.00 0.00 0.00 95 1023.1
20260830100016 20 0.0 0.0 0.00 0.00 0.00 95 1023.2
20260830094516 19 0.0 0.0 0.00 0.00 0.00 94 1022.9
20260830093036 19 0.0 0.0 0.00 0.00 0.00 94 1023.0
20260830091516 19 0.0 0.0 0.00 0.00 0.00 94 1022.9
20260830090036 19 0.0 0.0 0.00 0.00 0.00 93 1022.9
20260830084515 19 0.0 0.0 0.00 0.00 0.00 93 1023.0
20260830083016 19 0.0 0.0 0.00 0.00 0.00 93 1023.0
20260830081516 19 0.0 0.0 0.00 0.00 0.00 92 1023.1
20260830080016 19 0.0 0.0 0.00 0.00 0.00 93 1023.1
20260830074515 19 0.0 0.0 0.00 0.00 0.00 93 1023.2
20260830073015 20 0.0 0.0 0.00 0.00 0.00 92 1023.1
20260830071515 20 0.0 0.0 0.00 0.00 0.00 92 1023.1
20260830070016 20 0.0 0.0 0.00 0.00 0.00 93 1023.4
20260830064515 20 0.0 0.0 0.00 0.00 0.00 92 1023.4
20260830063036 20 0.0 0.0 0.00 0.00 0.00 92 1023.4
20260830061515 20 0.0 0.0 0.00 0.00 0.00 91 1023.6
20260830060015 20 0.0 0.0 0.00 0.00 0.00 91 1023.6
20260830054515 20 0.0 0.0 0.00 0.00 0.00 91 1023.4